Weather History for Westerly, RI

Change the Weather History Date:

Wednesday, May 15, 2013

  Actual Average (KGON) Record (KGON)
Temperature  
Mean Temperature 46 °F -  
Max Temperature 59 °F 64 °F 82 °F (1976)
Min Temperature 34 °F 45 °F 35 °F (2013)
Degree Days  
Heating Degree Days 18    
Moisture  
Dew Point 45 °F    
Average Humidity 86    
Maximum Humidity 100    
Minimum Humidity 55    
Precipitation  
Precipitation 0.00 in - - ()
Sea Level Pressure  
Sea Level Pressure 29.93 in    
Wind  
Wind Speed 4 mph (South)    
Max Wind Speed 13 mph    
Max Gust Speed 18 mph    
Visibility 8 miles    
Events Rain    
Averages and records for this station are not official NWS values.
T = Trace of Precipitation, MM = Missing Value Source: NWS Daily Summary

Daily Weather History Graph

Daily Weather History Graph

Search for Another Location

Airport:

Trip Planner

Search our weather history database for the weather conditions in past years. The results will help you decide how hot, cold, wet, or windy it might be!

Date:

Astronomy

May. 15, 2013 Rise Set
Actual Time 5:28 AM EDT 7:59 PM EDT
Civil Twilight 4:56 AM EDT 8:31 PM EDT
Nautical Twilight 4:17 AM EDT 9:10 PM EDT
Astronomical Twilight 3:33 AM EDT 9:54 PM EDT
Moon 10:01 AM EDT (5/15) No Moon Set
Length of Visible Light 15h 34m
Length of Day
14h 31m
Waxing Crescent, 26% of the Moon is Illuminated
May 15
Waxing Crescent
May 18
First Quarter
May 25
Full
May 31
Last Quarter
Jun 8
New

Hourly Weather History & Observations

Time (EDT) Temp. Windchill Dew Point Humidity Pressure Visibility Wind Dir Wind Speed Gust Speed Precip Events Conditions
12:53 AM 46.9 °F - 42.1 °F 83% 30.10 in 10.0 mi West 3.5 mph - N/A   Clear
1:53 AM 46.0 °F 44.8 °F 42.1 °F 86% 30.09 in 10.0 mi West 3.5 mph - N/A   Clear
2:53 AM 39.0 °F - 37.0 °F 93% 30.08 in 10.0 mi Calm Calm - N/A   Clear
3:53 AM 36.0 °F - 35.1 °F 97% 30.08 in 10.0 mi Calm Calm - N/A   Clear
4:53 AM 35.1 °F - 34.0 °F 96% 30.06 in 6.0 mi Calm Calm - N/A   Clear
5:47 AM 35.6 °F - 33.8 °F 93% 30.07 in 1.5 mi Calm Calm - N/A   Clear
5:53 AM 34.0 °F - 34.0 °F 100% 30.07 in 1.0 mi Calm Calm - N/A   Clear
5:59 AM 35.6 °F - 33.8 °F 93% 30.07 in 3.0 mi Calm Calm - N/A   Clear
6:53 AM 39.9 °F - 37.9 °F 93% 30.08 in 8.0 mi Calm Calm - N/A   Clear
7:53 AM 51.1 °F - 46.9 °F 86% 30.07 in 10.0 mi SSW 4.6 mph - N/A   Clear
8:53 AM 54.0 °F - 46.9 °F 77% 30.05 in 10.0 mi SSE 6.9 mph - N/A   Mostly Cloudy
9:53 AM 54.0 °F - 46.0 °F 75% 30.04 in 10.0 mi South 6.9 mph - N/A   Overcast
10:53 AM 57.0 °F - 46.0 °F 67% 30.04 in 10.0 mi SSW 10.4 mph - N/A   Overcast
11:53 AM 59.0 °F - 43.0 °F 55% 30.02 in 10.0 mi SSW 8.1 mph 18.4 mph N/A   Scattered Clouds
12:53 PM 57.9 °F - 44.1 °F 60% 30.01 in 10.0 mi South 10.4 mph - N/A   Overcast
1:53 PM 55.9 °F - 45.0 °F 67% 29.97 in 10.0 mi South 10.4 mph - N/A   Partly Cloudy
2:53 PM 55.0 °F - 46.9 °F 74% 29.90 in 10.0 mi South 11.5 mph - 0.00 in   Overcast
3:53 PM 55.0 °F - 50.0 °F 83% 29.91 in 8.0 mi South 6.9 mph - 0.00 in Rain Light Rain
4:24 PM 55.4 °F - 51.8 °F 88% 29.87 in 10.0 mi South 10.4 mph - 0.00 in   Overcast
4:53 PM 54.0 °F - 51.1 °F 90% 29.84 in 10.0 mi South 11.5 mph - 0.00 in   Overcast
5:53 PM 55.0 °F - 50.0 °F 83% 29.78 in 10.0 mi SSE 12.7 mph - N/A   Overcast
6:53 PM 55.0 °F - 51.1 °F 86% 29.78 in 8.0 mi South 9.2 mph - N/A   Overcast
7:53 PM 55.0 °F - 52.0 °F 89% 29.76 in 7.0 mi South 8.1 mph - N/A   Overcast
8:23 PM 53.6 °F - 51.8 °F 94% 29.74 in 6.0 mi South 9.2 mph - N/A   Scattered Clouds
8:53 PM 53.1 °F - 52.0 °F 96% 29.74 in 6.0 mi SSE 4.6 mph - N/A   Partly Cloudy
9:06 PM 53.6 °F - 51.8 °F 94% 29.73 in 6.0 mi SSE 4.6 mph - N/A   Mostly Cloudy
9:35 PM 53.6 °F - 51.8 °F 94% 29.74 in 6.0 mi South 6.9 mph - N/A   Partly Cloudy
9:53 PM 53.1 °F - 52.0 °F 96% 29.74 in 6.0 mi South 5.8 mph - N/A   Clear
10:53 PM 54.0 °F - 52.0 °F 93% 29.72 in 7.0 mi SSW 4.6 mph - N/A   Clear
11:53 PM 53.1 °F - 52.0 °F 96% 29.71 in 7.0 mi Calm Calm - N/A   Clear